Regional Weather Roundup
Issued by NWS Goodland, KS

Home | Current Version | Previous Version | Text Only | Print | Product List | Glossary On
Versions: 1 2 3 4 5 6 7 8 9 10 11 12 13 14 15 16 17 18 19 20 21 22 23 24 25 26 27 28 29 30 31 32 33 34 35 36 37 38 39 40 41 42 43 44 45 46 47 48 49 50
000
ASUS43 KGLD 010408
RWRGLD

GOODLAND FORECAST AREA HOURLY WEATHER ROUNDUP
NATIONAL WEATHER SERVICE GOODLAND KS
1000 PM MDT SAT APR 30 2016

...OFFICIAL OBSERVATIONS...

CITY           SKY/WX    TMP DP  RH WIND       PRES   REMARKS
GOODLAND KS    CLOUDY    35  33  92 N25       30.00R
HILL CITY KS   CLOUDY    42  37  82 NW12      29.96R
IMPERIAL NEB   LGT RAIN  35  33  92 N17       30.03R
MCCOOK NEB     CLOUDY    38  34  85 NW14      29.98R
AKRON CO       FLURRIES  33  30  88 N26       30.10R WCI  20
BURLINGTON CO  CLOUDY    35  32  88 NW22G30   30.03R
LIMON CO       CLOUDY    32  31  96 N31G40    30.10R WCI  17
$$

...UNOFFICIAL OBSERVATIONS...

CITY           SKY/WX    TMP DP  RH WIND       PRES   REMARKS
COLBY KS       CLOUDY    37  37 100 NW18      29.99R
GOVE KS          N/A     40  32  73 MISG        N/A
LENORA KS        N/A     39  32  76 MISG        N/A
NORTON KS      CLOUDY    39  34  81 NW10      29.94R
SHARON SPRINGS   N/A     36  33  88 NW20G26     N/A
TRIBUNE KS     CLOUDY    39  34  81 NW17      30.05R
KIT CARSON CO    N/A     36  30  80 MISG        N/A
YUMA CO          N/A     34  33  96 NW13G21     N/A
$$



USA.gov is the U.S. government's official web portal to all federal, state and local government web resources and services.